[Iaude] MPEC N112: 2024 NP2 [a=1.05,e=0.35,i=5.1,H=24.0]
    mpec at cfa.harvard.edu 
    mpec at cfa.harvard.edu
       
    Tue Jul  9 09:08:14 EDT 2024
    
    
  
M.P.E.C. 2024-N112                                 Issued 2024 July 9, 13:06 UT
     The Minor Planet Electronic Circulars contain information on unusual
         minor planets, routine data on comets and natural satellites,
         and occasional editorial announcements.  They are published
    on behalf of Division F of the International Astronomical Union by the
          Minor Planet Center, Smithsonian Astrophysical Observatory,
                          Cambridge, MA 02138, U.S.A.
			  
             Prepared using the Tamkin Foundation Computer Network
                              MPC at CFA.HARVARD.EDU
            URL https://www.minorplanetcenter.net/    ISSN 1523-6714
                                    2024 NP2                                    
Observations:
     K24N02P  C2024 07 02.55977021 46 31.037-16 44 02.54         21.85GVEN112F51
     K24N02P  C2024 07 02.56952321 46 27.565-16 44 36.35         21.65GVEN112F51
     K24N02P  C2024 07 02.58905021 46 20.643-16 45 42.79         22.00GVEN112F51
     K24N02P*KB2024 07 05.15508 21 32 08.36 -19 07 52.2          21.9 gZEN112Y66
     K24N02P KB2024 07 05.16202 21 32 05.89 -19 08 14.8          21.7 gZEN112Y66
     K24N02P KB2024 07 05.16897 21 32 03.44 -19 08 37.1          21.4 gZEN112Y66
     K24N02P  C2024 07 06.55848921 24 21.453-20 20 45.19         21.96GVEN112F51
     K24N02P  C2024 07 06.56839021 24 17.908-20 21 15.63         21.99GVEN112F51
     K24N02P KB2024 07 07.13860221 21 09.86 -20 49 56.8                ZEN112Y66
     K24N02P KB2024 07 07.14311721 21 08.32 -20 50 09.7          21.1 gZEN112Y66
     K24N02P KB2024 07 07.14728521 21 06.82 -20 50 22.3          20.6 gZEN112Y66
     K24N02P KB2024 07 07.15145321 21 05.37 -20 50 34.6          21.2 gZEN112Y66
     K24N02P KB2024 07 07.15544721 21 03.92 -20 50 46.3          20.7 gZEN112Y66
     K24N02P KB2024 07 08.12215321 15 45.61 -21 37 46.0          22.5 gZEN112Y66
     K24N02P KB2024 07 08.12684221 15 43.94 -21 38 00.0          22.4 gZEN112Y66
     K24N02P KB2024 07 08.13127021 15 42.41 -21 38 12.5          22.4 gZEN112Y66
     K24N02P KB2024 07 08.13572821 15 40.87 -21 38 25.7          22.3 gZEN112Y66
     K24N02P KB2024 07 08.14009821 15 39.31 -21 38 38.4          22.0 gZEN112Y66
     K24N02P KB2024 07 08.17788421 15 26.13 -21 40 24.0          22.0 gZEN112Y66
     K24N02P KB2024 07 08.18243021 15 24.55 -21 40 38.5          22.2 gZEN112Y66
     K24N02P KB2024 07 08.18547021 15 23.48 -21 40 46.5          21.4 gZEN112Y66
     K24N02P KB2024 07 08.18697721 15 22.92 -21 40 50.7          21.5 gZEN112Y66
     K24N02P KB2024 07 09.14033 21 10 11.53 -22 25 14.8          22.2 gZEN112Y64
     K24N02P KB2024 07 09.14450 21 10 10.09 -22 25 26.2          21.9 gZEN112Y64
     K24N02P KB2024 07 09.14867 21 10 08.66 -22 25 37.7          22.2 gZEN112Y64
     K24N02P KB2024 07 09.15286 21 10 07.18 -22 25 49.0          22.1 gZEN112Y64
     K24N02P KB2024 07 09.15694 21 10 05.81 -22 26 00.2          22.3 gZEN112Y64
Observer details:
F51 Pan-STARRS 1, Haleakala.  Observers J. Herman, T. Lowe, P. Minguez, A.
    Schultz, I. Smith.  Measurers K. Chambers, T. de Boer, J. Fairlamb, H.
    Gao, M. Huber, C.-C. Lin, E. Magnier, Y. Ramanjooloo, R. Wainscoat, R.
    Weryk.  1.8-m Ritchey-Chretien + CCD.
Y64 Transient Survey Telescope, Teide.  Observers M. R. Alarcon, M. Serra-
    Ricart.  Measurer M. R. Alarcon.  1.00-m f/1.3 reflector + CMO.
Y66 Two-Meter Twin Telescope, TTT2, Teide.  Observers M. R. Alarcon, M. Serra-
    Ricart, J. Licandro, F. Abarzuza.  Measurer M. R. Alarcon.  0.80-m f/6.85
    Ritchey-Chretien + CMO, 0.80-m f/4.38 Ritchey-Chretien + CMO.
Orbital elements:
2024 NP2                                                 Earth MOID = 0.0184 AU
Epoch 2024 Mar. 31.0 TT = JDT 2460400.5                 Veres                   
M 357.75937              (2000.0)            P               Q                  
n   0.91840995     Peri.   61.83540     -0.95383389     -0.28735238             
a   1.0482020      Node   101.35498     +0.23471999     -0.89466699             
e   0.3549536      Incl.    5.11131     +0.18736977     -0.34205204             
P   1.07           H   24.06          G   0.15           U   8                  
Residuals in seconds of arc
240702 F51  0.1+  0.1+    240707 Y66  0.4+  0.2+    240708 Y66  0.5+  1.1+
240702 F51  0.0   0.1-    240707 Y66  0.0   0.1-    240708 Y66  0.6+  0.6-
240702 F51  0.0   0.4+    240707 Y66  0.2+  0.0     240708 Y66  0.5+  0.0
240705 Y66  0.2-  0.2+    240707 Y66  0.4-  0.2+    240708 Y66  0.0   0.0
240705 Y66  0.4-  0.2-    240708 Y66  0.2+  0.5+    240709 Y64  0.3-  0.1+
240705 Y66  0.2-  0.4-    240708 Y66  0.2-  0.1-    240709 Y64  0.2-  0.1+
240706 F51  0.2+  0.2+    240708 Y66  0.1+  0.0     240709 Y64  0.1+  0.1-
240706 F51  0.3-  0.3-    240708 Y66  0.4+  0.4-    240709 Y64  0.3-  0.0
240707 Y66  0.3-  0.4-    240708 Y66  0.0   0.6-    240709 Y64  0.4+  0.1-
Ephemeris:
2024 NP2                 a,e,i = 1.05, 0.35, 5                   q = 0.6761
Date    TT    R. A. (2000) Decl.     Delta      r    Elong.  Phase     V
2024 06 09    23 43 36.9 +07 54 09   0.1473  0.9977    79.1    92.6    23.2
...
2024 06 24    22 32 17.8 -07 54 48   0.1449  1.0874   115.9    57.3    22.1
...
2024 07 02    21 49 36.5 -16 11 05   0.1529  1.1319   136.1    38.5    21.8
...
2024 07 08    21 16 25.8 -21 31 13   0.1651  1.1633   150.6    25.4    21.6
2024 07 09    21 10 57.8 -22 18 07   0.1677  1.1684   152.9    23.4    21.6
2024 07 10    21 05 32.9 -23 02 58   0.1704  1.1735   155.1    21.4    21.6
...
2024 07 16    20 34 43.0 -26 47 26   0.1905  1.2027   166.8    11.1    21.6
...
2024 07 24    20 00 24.3 -29 55 59   0.2262  1.2389   169.5     8.6    21.9
...
2024 08 08    19 21 29.0 -32 03 32   0.3163  1.2982   150.3    22.8    23.2
M. P. C. Staff               (C) Copyright 2024 MPC           M.P.E.C. 2024-N112
    
    
More information about the Iaude
mailing list